Taos, NM

2:09 AM MDT on June 26, 2017 (GMT -0600)
Taos Municipal

Weather History for KSKX - April, 2012

Change the Weather History Date:

Friday, April 20, 2012

  Actual Average Record
Temperature  
Mean Temperature 48 °F -  
Max Temperature 66 °F 59 °F 71 °F (1999)
Min Temperature 30 °F 26 °F 21 °F (1999)
Degree Days  
Heating Degree Days 17    
Moisture  
Dew Point 25 °F    
Average Humidity 44    
Maximum Humidity 80    
Minimum Humidity 19    
Precipitation  
Precipitation 0.00 in - - ()
Sea Level Pressure  
Sea Level Pressure 30.24 in    
Wind  
Wind Speed 8 mph (North)    
Max Wind Speed 18 mph    
Max Gust Speed 17 mph    
Visibility 10 miles    
Events      
Averages and records for this station are not official NWS values.
T = Trace of Precipitation, MM = Missing Value Source: NWS Daily Summary

Daily Weather History Graph

Daily Weather History Graph

Search for Another Location

Airport or City:

Trip Planner

Search our weather history database for the weather conditions in past years. The results will help you decide how hot, cold, wet, or windy it might be!

Date:

Astronomy

Apr. 20, 2012 Rise Set
Actual Time 6:21 AM MDT 7:41 PM MDT
Civil Twilight 5:54 AM MDT 8:08 PM MDT
Nautical Twilight 5:22 AM MDT 8:40 PM MDT
Astronomical Twilight 4:49 AM MDT 9:14 PM MDT
Moon 5:46 AM MDT (4/20) 7:28 PM MDT (4/20)
Length of Visible Light 14h 13m
Length of Day
13h 19m
Waning Crescent, 0% of the Moon is Illuminated
Apr 20
Waning Crescent
Apr 21
New
Apr 29
First Quarter
May 5
Full
May 12
Last Quarter

Hourly Weather History & Observations

Time (MDT) Temp. Windchill Dew Point Humidity Pressure Visibility Wind Dir Wind Speed Gust Speed Precip Events Conditions
12:15 AM 41.0 °F 36.4 °F 30.2 °F 65% 30.16 in 10.0 mi NNW 6.9 mph - N/A   Clear
12:35 AM 42.8 °F 37.5 °F 30.2 °F 61% 30.17 in 10.0 mi North 9.2 mph - N/A   Clear
12:55 AM 42.8 °F 37.0 °F 28.4 °F 57% 30.18 in 10.0 mi North 10.4 mph - N/A   Clear
1:15 AM 42.8 °F 36.6 °F 28.4 °F 57% 30.19 in 10.0 mi North 11.5 mph - N/A   Clear
1:35 AM 41.0 °F 34.7 °F 28.4 °F 61% 30.19 in 10.0 mi North 10.4 mph - N/A   Clear
1:55 AM 39.2 °F 33.0 °F 26.6 °F 61% 30.19 in 10.0 mi North 9.2 mph - N/A   Clear
2:15 AM 37.4 °F 33.8 °F 26.6 °F 65% 30.20 in 10.0 mi North 4.6 mph - N/A   Clear
2:35 AM 33.8 °F 28.6 °F 24.8 °F 70% 30.21 in 10.0 mi South 5.8 mph - N/A   Clear
2:55 AM 35.6 °F 32.8 °F 24.8 °F 65% 30.21 in 10.0 mi West 3.5 mph - N/A   Clear
3:15 AM 33.8 °F 27.7 °F 26.6 °F 75% 30.22 in 10.0 mi NNW 6.9 mph - N/A   Clear
3:35 AM 33.8 °F 27.0 °F 26.6 °F 75% 30.22 in 10.0 mi NW 8.1 mph - N/A   Clear
3:55 AM 30.2 °F 21.9 °F 24.8 °F 80% 30.23 in 10.0 mi NNW 9.2 mph - N/A   Clear
4:15 AM 30.2 °F 23.4 °F 24.8 °F 80% 30.24 in 10.0 mi North 6.9 mph - N/A   Clear
4:35 AM 32.0 °F 25.6 °F 26.6 °F 80% 30.24 in 10.0 mi NNE 6.9 mph - N/A   Clear
4:55 AM 32.0 °F 25.6 °F 26.6 °F 80% 30.24 in 10.0 mi NE 6.9 mph - N/A   Clear
5:15 AM 32.0 °F 25.6 °F 26.6 °F 80% 30.25 in 10.0 mi NE 6.9 mph - N/A   Clear
5:35 AM 33.8 °F 27.7 °F 26.6 °F 75% 30.25 in 10.0 mi ENE 6.9 mph - N/A   Clear
5:55 AM 33.8 °F 27.0 °F 26.6 °F 75% 30.25 in 10.0 mi ENE 8.1 mph - N/A   Clear
6:15 AM 32.0 °F 26.4 °F 26.6 °F 80% 30.26 in 10.0 mi ENE 5.8 mph - N/A   Clear
6:35 AM 30.2 °F 25.4 °F 24.8 °F 80% 30.27 in 10.0 mi East 4.6 mph - N/A   Clear
6:55 AM 30.2 °F 26.7 °F 24.8 °F 80% 30.28 in 10.0 mi East 3.5 mph - N/A   Clear
7:15 AM 33.8 °F 28.6 °F 26.6 °F 75% 30.28 in 10.0 mi East 5.8 mph - N/A   Clear
7:35 AM 37.4 °F 33.8 °F 28.4 °F 70% 30.29 in 10.0 mi East 4.6 mph - N/A   Clear
7:55 AM 41.0 °F - 28.4 °F 61% 30.29 in 10.0 mi Calm Calm - N/A   Clear
8:15 AM 44.6 °F 43.1 °F 28.4 °F 53% 30.29 in 10.0 mi NNE 3.5 mph - N/A   Clear
8:35 AM 44.6 °F 42.2 °F 28.4 °F 53% 30.29 in 10.0 mi North 4.6 mph - N/A   Clear
8:55 AM 46.4 °F 43.5 °F 28.4 °F 50% 30.29 in 10.0 mi North 5.8 mph - N/A   Clear
9:15 AM 48.2 °F - 28.4 °F 46% 30.30 in 10.0 mi North 6.9 mph - N/A   Clear
9:35 AM 51.8 °F - 28.4 °F 41% 30.30 in 10.0 mi NNE 10.4 mph - N/A   Clear
9:55 AM 53.6 °F - 28.4 °F 38% 30.30 in 10.0 mi NNE 10.4 mph - N/A   Clear
10:15 AM 53.6 °F - 26.6 °F 35% 30.30 in 10.0 mi NNE 9.2 mph 16.1 mph N/A   Clear
10:35 AM 55.4 °F - 24.8 °F 31% 30.31 in 10.0 mi ENE 5.8 mph 16.1 mph N/A   Clear
10:55 AM 55.4 °F - 23.0 °F 29% 30.31 in 10.0 mi NW 8.1 mph - N/A   Clear
11:15 AM 57.2 °F - 24.8 °F 29% 30.31 in 10.0 mi NNE 10.4 mph - N/A   Clear
11:35 AM 57.2 °F - 24.8 °F 29% 30.30 in 10.0 mi North 3.5 mph - N/A   Clear
11:55 AM 57.2 °F - 23.0 °F 27% 30.30 in 10.0 mi NNW 3.5 mph - N/A   Clear
12:15 PM 57.2 °F - 23.0 °F 27% 30.29 in 10.0 mi NNE 10.4 mph - N/A   Clear
12:35 PM 60.8 °F - 24.8 °F 25% 30.28 in 10.0 mi NW 11.5 mph - N/A   Clear
12:55 PM 60.8 °F - 23.0 °F 23% 30.27 in 10.0 mi NNW 6.9 mph - N/A   Clear
1:15 PM 60.8 °F - 24.8 °F 25% 30.27 in 10.0 mi North 4.6 mph - N/A   Clear
1:35 PM 62.6 °F - 24.8 °F 24% 30.26 in 10.0 mi North 6.9 mph - N/A   Clear
1:55 PM 62.6 °F - 24.8 °F 24% 30.26 in 10.0 mi South 4.6 mph - N/A   Clear
2:15 PM 64.4 °F - 24.8 °F 22% 30.25 in 10.0 mi SSW 9.2 mph 17.3 mph N/A   Clear
2:35 PM 62.6 °F - 24.8 °F 24% 30.25 in 10.0 mi Calm Calm - N/A   Mostly Cloudy
2:55 PM 66.2 °F - 24.8 °F 21% 30.24 in 10.0 mi WSW 18.4 mph - N/A   Mostly Cloudy
3:15 PM 64.4 °F - 24.8 °F 22% 30.24 in 10.0 mi Calm Calm - N/A   Partly Cloudy
3:35 PM 66.2 °F - 26.6 °F 23% 30.23 in 10.0 mi WNW 13.8 mph 17.3 mph N/A   Clear
3:55 PM 66.2 °F - 24.8 °F 21% 30.22 in 10.0 mi West 12.7 mph - N/A   Clear
4:15 PM 66.2 °F - 24.8 °F 21% 30.22 in 10.0 mi West 9.2 mph - N/A   Clear
4:35 PM 66.2 °F - 23.0 °F 19% 30.21 in 10.0 mi South 9.2 mph - N/A   Clear
4:55 PM 66.2 °F - 23.0 °F 19% 30.20 in 10.0 mi SSW 10.4 mph 16.1 mph N/A   Clear
5:15 PM 66.2 °F - 23.0 °F 19% 30.20 in 10.0 mi SSW 6.9 mph - N/A   Clear
5:35 PM 66.2 °F - 23.0 °F 19% 30.19 in 10.0 mi South 4.6 mph 16.1 mph N/A   Clear
5:55 PM 66.2 °F - 23.0 °F 19% 30.19 in 10.0 mi South 11.5 mph - N/A   Clear
6:15 PM 64.4 °F - 23.0 °F 21% 30.19 in 10.0 mi South 9.2 mph - N/A   Clear
6:35 PM 66.2 °F - 24.8 °F 21% 30.18 in 10.0 mi SSW 15.0 mph - N/A   Mostly Cloudy
6:55 PM 64.4 °F - 24.8 °F 22% 30.19 in 10.0 mi SSW 10.4 mph - N/A   Scattered Clouds
7:35 PM 62.6 °F - 23.0 °F 22% 30.20 in 10.0 mi SW 9.2 mph - N/A   Overcast
8:15 PM 57.2 °F - 21.2 °F 25% 30.21 in 10.0 mi SW 8.1 mph - N/A   Partly Cloudy
8:35 PM 55.4 °F - 21.2 °F 26% 30.22 in 10.0 mi SW 10.4 mph - N/A   Clear
8:55 PM 53.6 °F - 21.2 °F 28% 30.23 in 10.0 mi WSW 6.9 mph - N/A   Clear
9:15 PM 51.8 °F - 21.2 °F 30% 30.23 in 10.0 mi West 3.5 mph - N/A   Clear
9:35 PM 51.8 °F - 21.2 °F 30% 30.24 in 10.0 mi West 3.5 mph - N/A   Clear
9:55 PM 51.8 °F - 21.2 °F 30% 30.24 in 10.0 mi WSW 8.1 mph - N/A   Clear
10:15 PM 48.2 °F - 21.2 °F 34% 30.25 in 10.0 mi WSW 5.8 mph - N/A   Clear
10:35 PM 48.2 °F - 23.0 °F 37% 30.25 in 10.0 mi East 8.1 mph - N/A   Clear
10:55 PM 44.6 °F 40.2 °F 21.2 °F 39% 30.25 in 10.0 mi East 8.1 mph - N/A   Clear
11:15 PM 44.6 °F 40.7 °F 23.0 °F 43% 30.26 in 10.0 mi ENE 6.9 mph - N/A   Clear
11:35 PM 44.6 °F 43.1 °F 23.0 °F 43% 30.26 in 10.0 mi NE 3.5 mph - N/A   Clear
11:55 PM 44.6 °F 40.2 °F 21.2 °F 39% 30.27 in 10.0 mi NE 8.1 mph - N/A   Clear